{"data":{"norad_id":65592,"epoch":"2026-05-25T03:47:39.198048Z","epoch_age_seconds":58454,"freshness":"FRESH","line1":"1 65592U 25207A   26145.15809257  .00005085  00000+0  35612-3 0  9995","line2":"2 65592  97.4463 213.6073 0002469 162.6657 197.4655 15.05659221 39755","mean_motion":15.05659221,"eccentricity":0.0002469,"inclination_deg":97.4463,"raan_deg":213.6073,"arg_perigee_deg":162.6657,"mean_anomaly_deg":197.4655,"bstar":0.00035612,"rev_number":3975,"period_min":95.639171195963,"perigee_km":547.77244033432,"apogee_km":551.19329902597,"semimajor_km":6927.6198696801,"source":"CELESTRAK","updated_at":"2026-05-25T13:38:20.851609Z"}}